PSLV DEB, 41792

Orbit data source: Space-Track

PSLV DEB, 41792 is space debris in SSO originally from a launch on Mon, 26 Sep 2016 UTC launched from the Sirharikota (SRI). Debris objects in space refer to the collection of defunct objects orbiting the Earth. Examples of debris include non-operational satellites, rocket bodies, and fragments generated from explosions, collisions, or faulty payload assembly.

Loading next visibility...
Identifier
41792, 2016-059K
Orbit
SSO
Country
Flag of ININ / IND
Related business
Manufacturer
VSSC/LPSC
Mission
Spacecraft
Bus & Motor
Unknown
Mass
Unknown
Launch date (UTC)
2016-09-26 (9 years ago)
Launch vehicle
Unknown
Launch site
Sirharikota (SRI)
Object type
Payload
Rocket body
Debris
Shape & HBR
Cone + Cyl, 1.5 m
Radar Cross Section
7.069 m², Large (>1 m²)

Expand to show TLE details & history
Last TLE update: 17 hours ago

TLE from 17 hours ago
0 PSLV DEB
1 41792U 16059K   25310.03312270  .00004711  00000-0  65896-3 0  9993
2 41792  97.7960 333.5141 0022266 152.5532 207.6861 14.77876531487899
Epoch: 2025-11-06T00:47Z
TLE epoch observation values (Epoch: 2025-11-06T00:47:41.801Z)
Latitude
0.00006°
Longitude
-83.90733°
Altitude
652.897 km
Speed
7.524 km/s
True Right ascension
22h 14m 03s
True Declination
0° 00' 00"
Sunlit
Object was in daylight at epoch
Visualization orbit readout
Latitude
Unknown
Longitude
Unknown
Altitude
Unknown
Speed
Unknown
Apparent Right ascension
Unknown
Apparent Declination
Unknown
Sunlit
N/A
Visualization observer readout
Local Sidereal Time
14:06:03
Azimuth
Unknown
Elevation
Unknown
Doppler factor
Unknown
Orbital elements
Apogee altitude
648.685 km
Perigee altitude
617.463 km
Semi-major axis
7,011.211 km
Eccentricity
0.00223
Inclination
97.796°
RAAN
333.5141°
Arg. of periapsis
152.5532°
True anomaly
207.56784°
Mean anomaly
207.6861°
Eccentric anomaly
207.62694°
Mean motion
3.69704 °/min
Orbital period
97.38 mins
BSTAR
0.00065896
Loading maneuver chart data...
Computing Atmospheric mass density...
Loading historical data...
Loading historical data...
Loading historical data...
Loading historical data...
Loading historical data...
Loading historical data...
Loading historical data...

Documentation

Showing up to 5 results
|